TimeHST,TemperatureF,Dew PointF,Humidity,Sea Level PressureIn,VisibilityMPH,Wind Direction,Wind SpeedMPH,Gust SpeedMPH,PrecipitationIn,Events,Conditions,WindDirDegrees,DateUTC
12:53 AM,71.1,69.1,93,29.96,2.5,East,3.5,-,0.01,Rain,Heavy Rain,90,2012-11-06 10:53:00
1:06 AM,71.6,69.8,94,29.95,3.0,NNW,4.6,-,0.12,Rain,Light Rain,340,2012-11-06 11:06:00
1:13 AM,71.6,69.8,94,29.95,10.0,West,3.5,-,0.12,,Overcast,270,2012-11-06 11:13:00
1:53 AM,71.1,69.1,93,29.94,10.0,Calm,Calm,-,0.13,,Overcast,0,2012-11-06 11:53:00
2:21 AM,71.6,69.8,94,29.94,10.0,West,3.5,-,0.00,,Overcast,280,2012-11-06 12:21:00
2:35 AM,71.6,69.8,94,29.94,10.0,Calm,Calm,-,0.00,,Overcast,0,2012-11-06 12:35:00
2:53 AM,72.0,69.1,91,29.94,4.0,Calm,Calm,-,0.02,Rain,Rain,0,2012-11-06 12:53:00
3:04 AM,71.6,69.8,94,29.94,10.0,NW,6.9,-,0.02,Rain,Light Rain,310,2012-11-06 13:04:00
3:23 AM,71.6,69.8,94,29.94,10.0,West,4.6,-,0.02,,Overcast,270,2012-11-06 13:23:00
3:53 AM,71.1,69.1,93,29.94,10.0,Calm,Calm,-,0.02,,Overcast,0,2012-11-06 13:53:00
4:53 AM,72.0,64.9,78,29.94,10.0,Calm,Calm,-,0.00,,Overcast,0,2012-11-06 14:53:00
5:53 AM,71.1,66.9,87,29.96,10.0,North,3.5,-,N/A,,Mostly Cloudy,10,2012-11-06 15:53:00
6:53 AM,71.1,66.0,84,29.97,10.0,SW,3.5,-,N/A,,Overcast,230,2012-11-06 16:53:00
7:53 AM,71.1,66.9,87,29.98,10.0,Calm,Calm,-,0.02,,Mostly Cloudy,0,2012-11-06 17:53:00
8:53 AM,73.9,69.1,85,29.99,10.0,West,5.8,-,0.00,,Mostly Cloudy,280,2012-11-06 18:53:00
9:53 AM,79.0,69.1,72,29.99,10.0,Calm,Calm,-,N/A,,Mostly Cloudy,0,2012-11-06 19:53:00
10:53 AM,81.0,66.9,62,29.97,10.0,NNE,3.5,-,N/A,,Scattered Clouds,30,2012-11-06 20:53:00
11:53 AM,81.0,64.9,58,29.94,10.0,East,8.1,-,N/A,,Partly Cloudy,90,2012-11-06 21:53:00
12:53 PM,82.0,63.0,52,29.92,10.0,NE,8.1,-,N/A,,Scattered Clouds,50,2012-11-06 22:53:00
1:53 PM,82.0,63.0,52,29.90,10.0,NE,8.1,-,N/A,,Scattered Clouds,50,2012-11-06 23:53:00
2:53 PM,81.0,64.0,56,29.89,10.0,NE,9.2,-,N/A,,Clear,40,2012-11-07 00:53:00
3:53 PM,80.1,64.0,58,29.90,10.0,NE,8.1,-,N/A,,Partly Cloudy,50,2012-11-07 01:53:00
4:53 PM,78.1,64.0,62,29.91,10.0,NE,5.8,-,N/A,,Clear,50,2012-11-07 02:53:00
5:53 PM,75.9,64.9,69,29.92,10.0,NE,3.5,-,N/A,,Scattered Clouds,40,2012-11-07 03:53:00
6:53 PM,73.9,66.9,79,29.95,10.0,NNE,3.5,-,N/A,,Overcast,30,2012-11-07 04:53:00
7:53 PM,72.0,66.0,81,29.97,10.0,WSW,4.6,-,N/A,,Mostly Cloudy,240,2012-11-07 05:53:00
8:53 PM,71.1,64.0,78,29.99,10.0,WSW,4.6,-,N/A,,Mostly Cloudy,240,2012-11-07 06:53:00
9:29 PM,71.6,64.4,78,30.00,10.0,SW,3.5,-,0.00,,Overcast,220,2012-11-07 07:29:00
9:53 PM,70.0,63.0,78,30.00,10.0,SW,3.5,-,0.00,,Mostly Cloudy,220,2012-11-07 07:53:00
10:53 PM,69.1,63.0,81,30.00,10.0,WSW,5.8,-,N/A,,Mostly Cloudy,240,2012-11-07 08:53:00
11:53 PM,69.1,63.0,81,30.00,10.0,WSW,5.8,-,N/A,,Mostly Cloudy,240,2012-11-07 09:53:00